Flag for Germany Weather past 2 weeks in Germering, Bavaria, Germany

Now
63 °F

Passing clouds.


Feels Like: 63 °F
Forecast: 65 / 90 °F
Wind: 6 mph from Southwest

Location: Landsberg

Current Time: Jul 4, 2015 at 6:22:59 AM

Latest Report: Jul 4, 2015 at 5:20 AM


Visibility: N/A

Pressure: 30.24 "Hg (28.38 "Hg at 538m altitude)

Humidity: 88%

Dew point: 59 °F

Location of GermeringLocation

Historic Weather in Germering — Graph

°F

Germering temperature yesterday

Maximum temperature yesterday: 86 °F (at 3:20 PM)
Minimum temperature yesterday: 64 °F (at 2:20 AM)
Average temperature yesterday: 74 °F

Past Weeks' High & Low Weather Summary

 TemperatureHumidityPressure
High86 °F (Jul 2, 3:20 PM)94% (Jun 19, 5:20 AM)30.33 "Hg (Jun 19, 5:20 AM)
Low46 °F (Jun 20, 11:20 AM)37% (Jun 30, 2:20 PM)29.74 "Hg (Jun 22, 10:20 PM)
Average63 °F70%30.14 "Hg
* Reported Jun 19 5:20 AM — Jul 4 5:20 AM, Germering, Weather by CustomWeather, © 2015

Note: Actual official high and low records may vary slightly from our data, if they occured in-between our weather recording intervals... More about our weather records

Advertising

Germering weather history for previous 24 hours

 ConditionsComfort  
Time TempWeatherWind HumidityBarometerVisibility
5:20 AM
Sat, Jul 4
63 °FPassing clouds.6 mph88%30.24 "HgN/A
4:20 AM63 °FPassing clouds.2 mph83%30.24 "HgN/A
3:20 AM63 °FPassing clouds.3 mph83%30.24 "HgN/A
2:20 AM64 °FPassing clouds.3 mph83%30.27 "HgN/A
1:20 AM66 °FPassing clouds.3 mph78%30.27 "HgN/A
12:20 AM68 °FPassing clouds.3 mph73%30.27 "HgN/A
11:20 PM
Fri, Jul 3
70 °FPassing clouds.3 mph78%30.27 "HgN/A
10:20 PM73 °FPassing clouds.5 mph69%30.27 "HgN/A
9:20 PM75 °FPartly sunny.3 mph61%30.27 "HgN/A
8:20 PM79 °FPartly sunny.3 mph54%30.27 "HgN/A
7:20 PM82 °FPartly sunny.5 mph51%30.30 "HgN/A
6:20 PM84 °FPartly sunny.7 mph45%30.27 "HgN/A
5:20 PM84 °FPartly sunny.7 mph48%30.27 "HgN/A
4:20 PM86 °FPartly sunny.5 mph43%30.30 "HgN/A
3:20 PM86 °FPartly sunny.3 mph40%30.30 "HgN/A
2:20 PM82 °FPartly sunny.3 mph48%30.33 "HgN/A
1:20 PM79 °FPartly sunny.5 mph58%30.33 "HgN/A
12:20 PM75 °FPartly sunny.5 mph69%30.33 "HgN/A
11:20 AM73 °FBroken clouds.9 mph74%30.30 "HgN/A
10:20 AM73 °FThunderstorms. Partly sunny.9 mph78%30.33 "HgN/A
9:20 AM77 °FThunderstorms. Partly sunny.5 mph57%30.33 "HgN/A
8:20 AM75 °FPassing clouds.2 mph65%30.30 "HgN/A
7:20 AM68 °FPassing clouds.2 mph83%30.27 "HgN/A
6:20 AM64 °FPassing clouds.3 mph83%30.27 "HgN/A
Weather by CustomWeather, © 2015

See weather overviewHow to use our weather pages